Japan Airlines Virtual Airport Information Service

Tokyo Haneda International Airport

ICAO: RJTT Country: Japan
Latitude: 35.5522 Longitude: 139.78
Latest Arrival : JAL138 (RJOO-RJTT) Latest Departure : JAL139 (RJTT-RJOO)


WX CaptureLIVE
Data provided by noaa.gov | Fetched at 13:45:07

METAR : RJTT 281300Z 31007KT 9999 FEW010 BKN020 04/02 Q1006 NOSIG RMK 1ST010 7SC020 A2972

TAF : RJTT 281105Z 2812/2918 35012KT 9999 FEW010 BKN020 BECMG 2815/2817 25006KT


Runway Data for RJTT
Data provided by openaviationdata.com

Runway ID Mag Var Hdg Length Elevation Surface ILS Freq ILS Id ILS Slope
4 -7 41° 8208 ft 21 ft Asphalt -- -- --
16L -7 156° 9851 ft 21 ft Asphalt -- -- --
16R -7 156° 9851 ft 21 ft Asphalt -- -- --
22 -7 221° 8208 ft 21 ft Asphalt 108.1 IAD 3
34L -7 336° 9851 ft 21 ft Asphalt 111.7 IHA 3
34R -7 336° 9851 ft 21 ft Asphalt 108.9 ITC 3

Tokyo Haneda International Airport, Japan
Use only for reference purposes



Not for navigational purposes.